Content
SEND FEEDBACK

Daily
Averages
Monthly
Summary
Mexico

CANCUN, QUINTANA ROO


Home > North America > Mexico > Quintana Roo
Elevation: 9 meters     Latitude: 21 09N     Longitude: 086 49W

WEATHER
 
SELECT A DAY
Number of Records: 163,677;   Date Range: 1/1/95 - 7/23/14
 
SHARE

PRINT THIS DATA

[ ← Previous Day ]
WEATHER ALMANAC - 29 JANUARY, 2013
[ Next Day → ]
[ °F ]   °C
Weather ElementAverageHighLow
Temperature26 °C29 °C (12:44 pm)24 °C (4:41 am)
Dewpoint22.5 °C23 °C (1:45 am)22 °C (4:41 am)
Humidity81.4 %89 % (1:45 am)66 % (12:44 pm)
Barometer1016.9 hPa1019 hPa (8:44 am)1015.2 hPa (3:46 pm)
Wind Speed17.2 km/h24.1 km/h (9:45 am)
Weather ElementAverage
Visibility11.3 km
Wind DirectionESE (124.8 °)

Weather ElementTotal
Precipitation---
Cooling Degree Days8.2 (Base 18.3)
Growing Degree Days16.5 (Base 10)
Averaged from 23 records on 29 January, 2013
WEATHER CONDITIONS BREAKOUT
WIND DIRECTION BREAKOUT
WEATHER BY HOUR - 29 JANUARY, 2013
[ °F ]   °C
Local TimeTemperatureDewpointHumidityBarometerVisibilityWind DirectionWind SpeedGust SpeedPrecipitationEventsConditions
1:45 AM25 °C23 °C89 %1018.3 hPa11.3 kmESE (110°)11.1 km/hScattered Clouds
2:40 AM25 °C23 °C89 %1017.9 hPa11.3 kmESE (110°)11.1 km/hScattered Clouds
3:43 AM25 °C23 °C89 %1017.6 hPa11.3 kmESE (120°)11.1 km/hScattered Clouds
4:41 AM24 °C22 °C89 %1017.6 hPa11.3 kmESE (110°)7.4 km/hScattered Clouds
5:40 AM24 °C22 °C89 %1017.9 hPa11.3 kmESE (110°)9.3 km/hScattered Clouds
6:50 AM25 °C22 °C83 %1018.3 hPa11.3 kmESE (120°)16.7 km/hScattered Clouds
7:48 AM26 °C23 °C83 %1018.6 hPa11.3 kmSE (130°)18.5 km/hPartly Cloudy
8:44 AM28 °C22 °C70 %1019 hPa11.3 kmSE (140°)20.4 km/hScattered Clouds
9:45 AM28 °C23 °C74 %1019 hPa11.3 kmSE (130°)24.1 km/hScattered Clouds
10:53 AM28 °C22 °C70 %1018.3 hPa11.3 kmEast (100°)24.1 km/hScattered Clouds
11:44 AM28 °C23 °C74 %1018.3 hPa11.3 kmESE (110°)22.2 km/hMostly Cloudy
12:44 PM29 °C22 °C66 %1016.9 hPa11.3 kmSE (130°)24.1 km/hMostly Cloudy
1:45 PM28 °C22 °C70 %1015.9 hPa11.3 kmESE (110°)18.5 km/hMostly Cloudy
2:48 PM28 °C23 °C74 %1015.6 hPa11.3 kmSE (140°)24.1 km/hMostly Cloudy
3:46 PM28 °C23 °C74 %1015.2 hPa11.3 kmESE (120°)22.2 km/hMostly Cloudy
4:47 PM27 °C23 °C79 %1015.2 hPa11.3 kmSSE (150°)20.4 km/hScattered Clouds
5:45 PM26 °C23 °C83 %1015.2 hPa11.3 kmSE (140°)20.4 km/hScattered Clouds
6:45 PM26 °C23 °C83 %1015.6 hPa11.3 kmESE (120°)16.7 km/hScattered Clouds
7:47 PM24 °C22 °C89 %1015.6 hPa11.3 kmSE (130°)13 km/hScattered Clouds
8:44 PM24 °C22 °C89 %1016.6 hPa11.3 kmSE (130°)13 km/hPartly Cloudy
9:48 PM24 °C22 °C89 %1015.9 hPa11.3 kmSE (130°)18.5 km/hPartly Cloudy
10:47 PM24 °C22 °C89 %1015.9 hPa11.3 kmSE (140°)16.7 km/hClear
11:46 PM24 °C22 °C89 %1015.6 hPa11.3 kmSE (140°)13 km/hClear
Hourly data recorded from MMUN, located 0 kilometers away from Cancun, Quintana Roo







STORIES FROM OUR PARTNERS